EDT,Max TemperatureF,Mean TemperatureF,Min TemperatureF,Max Dew PointF,MeanDew PointF,Min DewpointF,Max Humidity, Mean Humidity, Min Humidity, Max Sea Level PressureIn, Mean Sea Level PressureIn, Min Sea Level PressureIn, Max VisibilityMiles, Mean VisibilityMiles, Min VisibilityMiles, Max Wind SpeedMPH, Mean Wind SpeedMPH, Max Gust SpeedMPH,PrecipitationIn, CloudCover, Events, WindDirDegrees
2013-6-1,87,80,73,74,73,68,100,86,63,30.04,30.01,29.96,10,9,1,18,6,26,0.93,6,Rain,140
2013-6-2,89,80,73,78,74,70,100,87,61,30.01,29.98,29.95,10,10,2,16,4,,0.39,3,Rain,276
2013-6-3,86,80,73,75,72,69,97,81,59,30.04,29.98,29.94,10,10,10,12,4,,0.02,3,Rain,218
2013-6-4,82,78,75,77,74,72,94,84,70,30.06,30.02,29.98,10,10,10,9,3,,0.05,4,Rain,95
2013-6-5,84,81,78,76,75,73,90,81,74,30.03,29.96,29.89,10,10,10,15,8,,0.00,4,Rain,105
2013-6-6,89,82,75,82,77,73,100,84,63,29.91,29.85,29.81,10,9,1,25,15,32,0.51,5,Rain,177
2013-6-7,90,80,73,79,75,73,100,91,67,30.03,29.95,29.87,10,7,1,17,8,26,2.62,5,Rain-Thunderstorm,126
2013-6-8,90,82,75,76,74,73,94,78,61,30.11,30.05,29.98,10,10,10,15,8,20,0.00,2,Rain,141
2013-6-9,88,83,79,75,73,70,85,73,61,30.11,30.08,30.04,10,10,10,16,11,17,0.00,2,,109
2013-6-10,89,84,80,76,75,73,85,74,61,30.09,30.06,30.02,10,10,10,15,10,20,0.00,3,,103
2013-6-11,89,84,79,77,75,73,88,77,63,30.09,30.06,30.02,10,10,10,17,8,17,0.00,1,Rain,122
2013-6-12,90,81,73,76,73,70,94,84,59,30.11,30.07,30.04,10,9,2,12,2,,0.46,3,Rain-Thunderstorm,232
2013-6-13,88,81,75,75,73,71,96,80,61,30.06,30.01,29.97,10,10,10,14,2,18,0.02,2,,288
2013-6-14,91,83,75,74,72,69,91,73,50,29.99,29.95,29.89,10,10,10,17,5,23,0.00,2,,248
2013-6-15,91,84,77,75,73,70,94,72,50,30.07,30.01,29.96,10,10,10,10,5,,0.00,1,,261
2013-6-16,91,84,78,75,73,71,90,73,55,30.09,30.06,30.02,10,10,10,12,4,21,0.00,1,,95
2013-6-17,91,84,79,75,74,71,82,70,55,30.09,30.06,30.03,10,10,10,13,7,21,0.00,1,,122
2013-6-18,91,84,78,75,74,73,88,72,57,30.08,30.05,30.01,10,10,10,14,7,21,0.00,2,,134
2013-6-19,91,85,80,76,74,71,85,74,59,30.06,30.03,30.00,10,10,4,13,5,20,0.09,4,Rain,147
2013-6-20,91,82,75,75,72,68,83,71,57,30.10,30.07,30.03,10,10,10,13,5,21,0.00,3,Thunderstorm,103
2013-6-21,91,84,79,75,71,68,79,65,48,30.13,30.09,30.04,10,10,10,13,8,18,0.00,1,,119
2013-6-22,91,84,78,74,72,70,87,69,52,30.12,30.08,30.05,10,10,10,14,7,20,0.01,2,Rain-Thunderstorm,101
2013-6-23,91,82,75,75,73,70,88,72,54,30.14,30.10,30.06,10,10,8,17,9,24,0.07,2,Rain,118
2013-6-24,90,82,75,73,72,69,94,72,50,30.17,30.12,30.09,10,10,2,17,10,22,0.45,4,Rain,106
2013-6-25,90,84,79,75,74,72,85,72,59,30.14,30.09,30.04,10,10,10,16,9,22,0.00,2,,112
2013-6-26,91,85,80,76,73,68,87,71,48,30.09,30.06,30.02,10,10,10,16,8,24,0.00,1,Thunderstorm,127
2013-6-27,90,82,78,76,73,70,90,77,57,30.06,30.02,29.98,10,10,10,14,5,,0.03,2,Rain-Thunderstorm,146
2013-6-28,89,82,75,76,73,70,94,78,59,30.01,29.96,29.89,10,10,10,15,3,22,0.05,2,Rain-Thunderstorm,175
2013-6-29,90,82,75,76,73,72,94,80,59,29.93,29.90,29.87,10,9,1,39,5,60,0.70,3,Rain-Thunderstorm,193
2013-6-30,90,84,77,75,73,70,90,76,57,29.97,29.91,29.88,10,10,10,18,10,30,0.09,2,Rain,190